Regional Weather Roundup
Issued by NWS Northern Indiana

Home | Current Version | Previous Version | Graphics & Text | Print | Product List | Glossary On
Versions: 1 2 3 4 5 6 7 8 9 10 11 12 13 14 15 16 17 18 19 20 21 22 23 24 25 26 27 28 29 30 31 32 33 34 35 36 37 38 39 40 41 42 43 44 45 46 47 48 49 50
000
ASUS43 KIWX 251500
RWRIWX

KIWX WEATHER ROUNDUP
NATIONAL WEATHER SERVICE NORTHERN INDIANA
1000 AM EST TUE NOV 25 2014

NOTE: "FAIR" INDICATES FEW OR NO CLOUDS BELOW 12,000 FEET WITH NO
SIGNIFICANT WEATHER AND/OR OBSTRUCTIONS TO VISIBILITY.

* THESE STATIONS ARE NOT UNDER NWS QUALITY CONTROL. THEY ALSO MAY NOT
  REPORT WEATHER SUCH AS PRECIPITATION OR FOG.

INZ001>027-251600-
NORTHERN INDIANA

CITY           SKY/WX    TMP DP  RH WIND       PRES   REMARKS
GARY*          CLOUDY    25  18  74 W14G25    30.08R WCI  13
SOUTH BEND     CLOUDY    25  19  78 W12       30.03R WCI  14
ELKHART*       CLOUDY    27  18  69 W14       30.02R WCI  15
GOSHEN         CLOUDY   N/A N/A N/A W17       30.02R
ANGOLA*        CLOUDY    27  21  80 W15       29.98R WCI  15
FORT WAYNE     CLOUDY    30  25  81 W18G24    30.03R WCI  18
PERU/GRISSOM   CLOUDY    27  26  94 W16       30.05R WCI  15

$$
INZ028>050-251600-
CENTRAL INDIANA

CITY           SKY/WX    TMP DP  RH WIND       PRES   REMARKS
LAFAYETTE      CLOUDY    26  20  77 NW10      30.10R WCI  16
KOKOMO*        CLOUDY    28  21  74 W24       30.06R WCI  14
MUNCIE*        CLOUDY    33  26  75 W18G24    30.04R WCI  22
INDIANAPOLIS   CLOUDY    33  26  75 W16       30.07R WCI  23

$$
MIZ043>046-050>051-056>058-064>065-071>073-077>080-251600-
SOUTHWEST LOWER MICHIGAN

CITY           SKY/WX    TMP DP  RH WIND       PRES   REMARKS
BATTLE CREEK   CLOUDY    29  21  72 SW15      29.96R WCI  18
BENTON HARBOR  CLOUDY    27  22  81 W18       30.02R WCI  14
COLDWATER*     CLOUDY    29  25  82 W12       29.97R WCI  20
HILLSDALE*     CLOUDY    29  24  84 W15G21    29.95R WCI  17
HOLLAND        LGT SNOW  31  26  82 W15       29.96R WCI  20
GRAND RAPIDS   LGT SNOW  29  26  89 SW14      29.93R VSB 3/4 WCI  18
KALAMAZOO      CLOUDY    28  22  78 SW12      29.98R WCI  18
STURGIS*       CLOUDY    27  19  74 W7        29.99R WCI  19
THREE RIVERS*  CLOUDY    28  21  76 W9G16     30.00R WCI  19

$$
OHZ001>008-015>018-024>025-251600-
NORTHWEST OHIO

CITY           SKY/WX    TMP DP  RH WIND       PRES   REMARKS
FINDLAY        CLOUDY    35  27  72 SW21      30.00R WCI  24
TOLEDO EXPRESS CLOUDY    32  23  69 SW25G32   29.98R WCI  19
TOLEDO METCALF CLOUDY    34  24  67 SW21G28   29.99R WCI  22
LIMA           CLOUDY    35  26  69 W20G28    30.01R WCI  24

$$
AND FOR LAKE MICHIGAN COASTAL AND OPEN LAKE BUOY OBSERVATIONS

STATION/POSITION TEMP    WIND        PRES    VSBY  WAVE
                 AIR SEA DIR/SP/G                  HT/PER
                 (F)     (DEG/KT/KT) (MB)    (MI)  (FT/S)
CALUMET HARBOR    22     230/  8/ 13 1016.6R
MICHIGAN CITY     25     230/ 20/ 23   N/A
SAINT JOSEPH      29     230/ 17     1016.3R
SOUTH LAKE BUOY   28 42  270/ 19/ 23 1014.9R         6/ 5
MICHIGAN CITY CG     37                N/A       6   5

$$
&&


USA.gov is the U.S. government's official web portal to all federal, state and local government web resources and services.